Temp
29 28 26 26 27 28 28 28 28 29 29 30 30 28 26 24 25 27 27 27 28 26 25 26 25 24 24 24 23 23 23 24 24 24 24 25 27 28 28 28 28 28 28 29 29 29 28 28 27 27 27 27 27 26 26 25 25 25 25 25 25 25 25 25 25 25 25 25 25 25 25 25 24 24 24 24 24 24 24 24 24 24 24 24 23 24
28 26 26 27 28 29 29 29 29 29 29 30 29 28 27 25 25 27 27 27 28 27 25 25 25 24 24 24 23 23 24 24 24 24 25 26 27 27 28 28 28 28 28 29 29 28 28 28 27 27 27 27 26 26 26 26 25 26 26 25 25 25 25 25 25 25 25 25 25 25 25 25 25 25 25 24 24 24 24 24 24 24 24 24 24 24
26 25 26 28 29 29 29 29 29 29 30 30 29 28 25 26 26 27 28 28 28 27 24 25 24 24 24 24 23 23 24 24 24 24 24 25 26 27 28 28 29 28 28 29 28 28 28 27 27 27 27 27 27 26 26 26 26 26 26 26 25 25 25 25 25 26 26 25 25 25 25 25 25 25 25 25 24 24 24 24 24 24 24 24 24 24
24 25 28 28 28 29 29 29 29 29 29 29 29 26 24 26 26 24 26 28 28 27 25 25 24 23 24 24 23 23 23 24 24 24 24 23 25 26 27 28 29 28 28 29 28 28 28 27 27 27 27 26 26 26 26 26 26 26 26 26 25 25 25 25 25 25 26 25 25 26 26 26 25 25 25 25 24 24 24 24 24 24 24 24 24 24
25 27 29 28 28 29 28 29 29 28 27 29 30 27 25 27 27 25 27 28 27 26 26 25 23 22 24 24 23 23 23 23 24 24 24 24 24 25 26 27 28 28 28 29 28 28 27 27 27 27 27 26 26 26 26 26 26 26 26 26 25 25 25 25 25 25 26 25 25 26 26 25 25 25 25 25 24 24 24 24 24 24 24 24 24 24
27 28 29 28 28 29 28 29 29 28 26 27 30 30 28 28 28 27 28 27 24 23 25 26 22 21 23 24 24 23 23 24 23 24 24 24 24 24 25 27 27 28 29 29 28 28 27 27 27 27 27 26 26 26 26 26 26 26 26 26 25 25 25 25 25 25 26 25 26 26 26 25 25 25 25 25 24 24 24 24 25 25 24 24 24 24
28 29 29 29 28 28 28 28 29 30 26 24 29 32 30 29 28 28 28 25 22 22 25 27 23 21 22 23 24 24 23 24 23 24 24 24 24 25 25 26 27 27 28 29 28 28 27 27 27 26 26 26 26 26 26 26 26 26 26 26 25 25 25 25 25 25 25 25 26 26 26 25 25 25 25 25 25 25 25 25 25 25 24 24 24 24
29 29 29 29 29 28 28 27 30 31 27 25 31 32 30 29 28 28 28 25 24 24 25 27 25 21 21 23 24 24 23 24 24 24 24 24 25 25 25 25 26 27 28 29 28 28 27 27 27 27 27 27 26 26 26 26 26 26 26 26 25 25 25 25 25 25 25 26 26 26 26 26 26 26 26 25 25 25 25 25 25 25 25 24 24 24
30 29 29 29 28 28 28 29 31 31 29 29 33 32 30 30 30 29 28 25 26 25 22 24 25 22 20 23 24 24 23 23 24 24 24 24 24 25 25 25 25 26 28 29 28 28 28 27 27 27 27 27 27 27 27 26 26 26 26 26 25 25 25 25 25 25 25 26 26 26 26 26 26 26 26 26 25 25 25 25 25 25 25 24 24 24
30 30 30 30 29 28 29 31 31 31 31 32 34 33 31 31 30 30 28 26 25 23 21 22 24 22 21 22 23 23 23 24 24 24 24 24 24 24 25 25 24 25 27 28 28 28 28 28 27 27 27 27 27 27 27 27 26 26 26 26 25 25 25 25 25 25 25 26 26 26 26 26 26 26 26 26 26 25 25 25 25 25 25 25 24 24
30 31 31 31 30 30 31 32 32 32 33 33 34 33 31 30 30 29 27 25 23 22 22 23 24 23 21 22 23 23 24 25 25 25 24 24 24 24 25 25 24 24 26 28 28 28 28 28 28 27 27 27 27 27 27 27 26 26 26 26 26 25 25 25 25 25 25 26 26 26 26 26 26 26 26 26 26 26 25 25 25 25 25 25 25 24
30 30 31 32 32 32 32 32 32 33 33 33 33 32 28 26 26 24 23 24 22 21 23 24 25 24 21 22 24 25 26 27 26 25 25 24 24 24 24 24 24 24 26 27 28 28 27 28 28 27 27 27 27 27 27 27 26 26 26 26 26 25 25 25 25 26 26 26 26 26 26 26 26 26 26 26 26 26 26 26 26 25 25 25 25 25
29 30 31 32 33 33 32 30 31 32 32 32 31 28 24 22 22 21 21 22 22 22 24 25 25 23 22 24 26 26 27 27 27 27 26 25 25 25 25 25 25 25 26 27 28 28 27 27 27 27 27 27 27 27 27 27 26 26 26 26 26 25 25 25 25 25 26 26 26 26 26 26 26 26 26 26 26 26 26 26 26 25 25 25 25 25
26 29 31 31 31 32 32 29 27 28 30 31 28 25 23 22 21 21 21 22 22 22 24 26 25 22 22 25 27 28 27 27 27 27 27 26 25 25 25 25 26 26 26 27 27 28 27 27 27 28 27 27 27 27 27 27 26 26 26 26 26 26 25 25 25 25 25 25 26 26 26 26 26 26 26 26 26 26 26 26 26 26 25 25 25 25
22 24 28 30 30 31 33 31 29 29 30 31 31 28 25 23 22 22 22 22 22 22 23 25 24 22 22 24 26 28 28 28 28 27 27 26 26 26 25 25 26 26 26 26 26 27 26 26 28 28 28 27 27 27 27 26 26 26 26 26 26 25 25 25 25 25 25 25 25 26 26 26 26 26 26 26 26 26 26 26 26 26 26 25 25 25
22 23 28 31 31 32 33 32 32 31 29 30 32 29 25 26 25 23 23 23 23 22 22 22 22 22 23 24 25 28 28 28 28 27 27 26 26 26 25 25 25 25 26 25 25 26 24 23 25 26 26 26 27 27 26 26 26 25 25 25 26 26 25 25 25 25 25 25 25 25 25 26 26 25 26 26 26 26 26 26 26 26 26 25 25 25
22 23 29 30 31 34 34 32 33 31 28 29 28 26 28 31 29 24 22 24 23 22 21 21 21 22 24 25 25 27 28 28 28 27 27 26 26 25 25 25 25 25 25 23 23 24 22 20 22 23 24 25 26 26 26 26 26 26 25 25 25 25 25 25 25 25 25 25 25 25 25 25 25 25 26 26 26 26 26 26 26 26 25 25 25 25
23 23 27 30 30 33 33 32 33 32 31 29 26 27 31 31 30 26 23 23 22 21 21 21 21 21 22 23 24 26 27 27 26 26 26 26 26 26 25 25 24 23 23 22 22 23 21 21 22 23 24 25 25 25 26 27 26 26 25 25 25 25 25 25 25 25 25 25 25 25 25 25 25 25 25 26 26 26 26 26 26 26 25 25 25 25
25 22 26 30 29 31 33 31 30 31 33 30 28 31 30 25 25 25 23 22 22 21 21 21 21 21 21 22 23 24 25 25 25 26 25 25 25 24 24 23 22 21 21 21 21 22 22 22 22 24 25 25 25 25 26 27 27 26 25 25 25 25 25 25 25 25 25 25 25 25 25 25 25 25 25 25 26 26 26 26 26 26 25 25 25 26
27 23 23 28 30 30 31 29 26 27 31 32 31 32 30 26 25 24 24 23 22 21 21 21 21 21 22 23 23 23 22 22 23 24 23 23 23 23 23 22 21 21 21 21 21 22 22 22 22 24 24 25 25 25 25 25 26 26 25 25 25 25 25 25 25 25 25 25 25 25 25 25 25 25 25 25 25 25 25 25 25 26 25 25 26 26
27 24 22 26 29 29 27 28 27 28 29 29 27 27 27 27 26 26 25 24 22 21 21 21 21 21 22 23 23 22 22 22 22 23 22 22 22 22 22 22 21 21 21 21 21 22 22 22 22 23 23 24 24 24 23 24 25 25 25 25 25 25 25 25 25 24 24 24 24 24 24 24 25 25 25 25 25 25 25 25 25 26 26 26 26 26
25 24 22 23 25 25 26 29 31 31 30 29 27 27 27 27 25 24 23 23 23 22 21 21 21 20 22 23 22 22 22 23 23 23 22 22 22 22 22 22 22 22 22 22 22 21 21 21 22 22 22 22 22 22 22 23 23 24 23 23 23 23 23 23 23 22 22 22 23 23 23 23 24 24 25 25 25 25 25 25 25 26 26 26 26 26
24 24 23 22 23 25 28 30 30 30 31 31 30 30 30 28 26 22 22 23 22 22 22 21 20 21 22 23 23 23 23 23 23 23 22 22 22 22 22 21 21 21 22 22 22 22 21 21 21 21 21 21 21 22 22 22 22 22 22 22 21 22 22 21 20 21 22 23 24 24 23 23 24 24 24 24 25 25 25 25 26 26 26 26 26 26
25 24 22 22 24 26 28 30 30 31 31 30 29 30 30 29 28 26 25 24 22 21 22 21 20 21 22 22 22 23 23 23 23 22 22 21 21 21 21 21 21 21 21 21 22 22 22 21 20 20 21 21 21 21 21 22 22 21 21 21 21 22 22 21 21 23 23 24 25 24 23 23 23 24 24 24 24 25 25 25 25 25 26 26 26 26
24 23 22 21 22 23 25 26 26 27 28 27 27 29 29 29 29 28 26 25 22 21 21 21 20 20 21 22 22 22 22 23 22 22 21 21 21 20 20 20 20 20 21 21 21 21 21 20 20 20 20 20 21 21 21 21 21 21 21 21 21 22 21 20 21 22 22 23 23 23 23 23 23 24 24 24 24 24 25 25 25 25 26 26 26 26
24 24 23 21 21 21 21 22 22 24 25 26 27 28 28 29 29 27 24 23 22 21 21 21 20 20 22 22 22 22 22 22 22 22 21 21 21 20 20 20 20 20 20 20 20 20 20 20 19 19 19 20 20 20 19 19 20 20 20 20 22 21 20 20 22 22 21 22 22 22 23 23 23 24 24 24 24 24 24 25 25 25 26 26 26 26
25 24 24 22 21 21 21 22 25 25 24 24 25 26 27 29 29 27 24 22 22 21 21 21 21 21 21 22 22 22 22 22 21 21 21 21 21 20 20 20 20 20 20 20 20 19 19 19 19 19 19 19 19 20 19 19 19 19 19 20 22 21 20 21 22 22 21 22 22 22 22 23 23 23 23 23 24 24 24 25 25 25 26 26 26 26
24 23 24 24 23 23 24 25 27 27 25 24 25 25 26 28 28 27 24 23 23 22 21 21 22 21 21 22 22 22 22 22 21 21 21 21 20 20 20 20 20 20 20 20 20 19 19 18 18 18 18 18 19 19 19 19 19 19 19 20 21 21 20 21 22 22 22 22 22 23 23 23 23 23 22 23 23 24 24 24 24 25 25 26 26 26
23 22 23 24 24 25 25 26 27 27 26 26 25 25 26 26 27 26 24 24 25 23 21 22 22 21 22 23 22 22 22 22 21 21 21 21 21 20 20 20 20 20 20 20 20 19 19 18 18 18 18 18 19 19 19 19 19 19 19 20 20 21 20 21 21 22 22 22 22 22 23 23 22 22 23 23 23 24 23 23 24 24 25 25 26 26
23 22 23 23 23 24 25 25 27 27 26 25 24 25 25 26 26 26 25 25 25 24 22 22 22 22 22 23 23 23 22 22 22 22 21 21 21 20 20 20 20 20 20 20 20 20 19 18 18 18 17 18 18 19 19 19 20 20 20 20 20 20 20 20 21 21 21 21 21 21 21 21 21 22 22 22 23 23 23 23 23 24 24 25 25 25
23 22 22 23 22 23 24 25 25 26 25 24 23 24 25 26 26 25 24 24 23 23 22 22 22 22 21 21 23 23 23 23 22 21 21 21 21 21 20 20 20 20 20 20 20 20 20 19 19 19 18 18 18 18 19 19 20 20 20 20 20 20 20 20 20 20 20 20 20 20 20 21 21 21 21 21 22 22 22 22 23 23 24 24 25 25
23 22 22 22 21 21 23 23 24 26 25 23 23 24 24 24 25 25 25 24 23 22 22 21 21 21 20 20 22 23 23 22 22 21 21 21 21 21 20 20 20 20 20 20 20 20 20 20 20 20 19 19 19 19 19 19 19 19 19 19 19 19 20 20 20 20 20 20 20 20 21 21 21 21 21 21 21 21 21 21 22 23 23 24 24 25
22 22 22 21 21 21 22 23 24 25 23 21 22 23 24 24 25 25 25 25 24 23 22 22 22 21 21 21 22 22 23 22 22 21 21 21 21 21 20 20 20 20 20 20 20 20 20 20 21 20 20 20 20 20 20 20 19 19 19 19 19 19 20 20 20 20 19 19 20 21 21 20 21 21 21 21 21 21 21 21 21 22 22 23 24 24
21 22 21 21 21 20 21 23 23 22 21 21 23 24 24 25 25 24 24 24 24 24 23 23 22 22 21 22 22 22 22 22 21 21 21 20 20 20 20 20 20 20 20 20 20 20 20 20 20 20 21 21 20 19 19 20 20 19 20 20 20 20 20 20 20 19 19 19 20 20 20 20 20 20 20 20 20 21 21 21 21 21 21 22 22 23
21 21 21 21 21 20 21 22 21 20 21 23 24 24 25 25 24 24 24 24 24 24 23 22 22 22 22 22 21 21 21 21 21 21 21 20 20 20 20 20 20 20 20 20 20 20 20 20 20 20 21 21 21 20 19 20 20 19 20 20 20 20 20 20 19 19 19 19 19 19 20 20 20 20 19 19 20 20 20 20 20 20 20 21 21 22
21 21 21 21 21 21 21 21 20 21 22 24 24 24 25 25 25 24 23 23 23 23 22 21 21 21 21 21 21 21 21 21 21 20 20 20 20 20 20 20 20 20 20 20 20 19 20 20 20 20 21 21 21 21 20 20 20 19 19 20 20 20 20 19 19 19 20 19 19 19 20 20 20 20 20 20 20 20 20 20 20 20 20 21 21 21
22 21 20 21 21 20 20 20 20 21 21 22 23 23 23 24 25 24 22 21 22 21 21 20 20 21 21 20 20 21 21 21 20 20 20 20 20 20 20 19 19 20 20 20 20 20 20 20 20 20 20 21 21 21 21 21 20 20 20 20 20 20 20 20 20 20 20 20 19 19 19 19 20 20 20 20 20 20 20 20 20 20 20 21 21 21
22 21 20 20 20 20 20 20 20 20 20 21 22 22 23 22 23 24 23 21 20 20 19 20 20 20 20 20 20 20 21 20 19 19 20 21 20 20 19 19 19 20 20 20 20 20 20 20 19 20 20 20 20 20 21 21 20 20 20 19 20 19 19 19 19 19 19 20 19 19 19 19 19 19 19 20 20 20 20 20 20 20 20 20 21 21
21 21 21 20 20 20 20 20 20 20 20 21 21 22 23 22 23 25 23 20 20 19 18 19 19 19 19 19 19 20 20 19 18 19 20 20 20 19 19 19 19 19 20 19 19 19 19 19 19 19 19 19 19 19 20 20 20 19 19 19 19 19 18 18 18 18 19 19 19 19 19 19 19 19 19 19 20 20 20 20 20 20 20 20 20 20
21 21 21 20 20 20 20 20 20 20 20 21 22 22 22 23 24 24 21 20 21 20 19 19 19 19 19 19 19 20 20 19 19 19 20 20 19 19 19 18 18 18 18 18 18 19 19 18 18 18 18 18 18 18 19 19 19 19 18 18 18 18 17 18 18 18 18 18 18 18 18 19 19 19 19 19 19 19 20 20 20 20 20 21 21 21
20 20 20 20 20 20 20 20 20 20 21 21 21 22 22 23 23 22 20 20 20 20 20 19 18 18 18 18 19 20 20 20 20 19 19 19 19 18 18 18 18 18 18 18 18 18 18 18 17 17 17 17 18 18 18 18 18 17 17 17 17 17 17 17 17 17 17 17 17 17 18 18 18 18 19 19 19 19 19 20 20 20 20 21 21 21
20 20 20 20 20 20 20 20 20 20 21 21 21 22 23 22 21 20 20 20 19 20 20 20 19 19 19 19 19 19 19 20 20 19 19 19 18 18 18 17 17 17 17 18 18 18 17 17 17 17 17 17 17 17 17 17 17 16 16 16 16 16 16 17 17 17 17 17 17 17 17 17 18 18 18 18 18 19 19 19 20 20 20 20 20 21
20 20 19 19 19 20 20 20 19 20 20 21 22 22 22 21 20 20 20 19 18 19 20 20 19 19 19 19 19 19 19 19 19 18 18 18 17 17 17 17 16 16 17 17 17 17 17 16 16 16 16 16 16 16 16 16 16 16 16 16 16 16 16 16 16 16 16 16 16 17 17 17 17 17 18 18 18 18 19 19 20 20 20 20 20 20
20 19 19 19 19 19 19 19 19 20 20 20 21 21 20 20 20 20 20 19 19 19 19 19 19 19 19 19 19 19 19 18 18 18 17 17 17 16 16 16 16 16 16 16 16 16 16 16 16 15 15 15 15 15 15 15 15 15 15 15 15 15 16 16 16 16 16 16 16 16 16 16 17 17 17 18 18 18 18 19 19 19 20 20 20 20
19 19 20 19 19 19 19 19 20 20 20 20 21 21 20 20 20 20 20 19 19 19 19 19 19 19 19 19 19 18 18 18 17 17 17 17 16 15 15 15 15 16 16 16 16 16 16 15 15 15 15 15 15 15 15 15 15 15 15 15 15 15 15 15 15 16 16 16 16 16 16 16 17 17 17 17 17 17 17 17 18 18 18 19 19 19
18 19 19 20 19 19 19 19 19 20 20 20 20 21 20 20 20 19 20 20 19 19 19 18 18 18 19 19 19 18 18 17 17 17 17 16 15 15 15 15 15 16 16 16 16 16 15 15 15 15 15 15 15 15 15 15 15 15 15 15 15 15 15 15 15 15 15 15 15 15 16 16 16 16 16 16 16 16 16 16 17 17 17 17 18 18
18 18 19 19 19 19 19 19 19 19 19 19 20 21 20 21 20 19 19 19 19 19 19 19 19 18 18 18 18 17 17 17 17 16 16 16 15 14 14 14 15 16 16 16 16 15 15 15 15 15 15 14 14 15 14 14 15 15 14 15 15 15 15 15 15 15 15 15 15 15 15 15 15 15 15 16 16 16 16 16 16 16 16 16 17 17
18 19 19 18 18 19 19 18 18 19 19 18 19 19 19 20 20 19 18 18 18 18 18 18 18 18 18 17 17 16 16 16 16 16 16 15 14 14 14 15 15 16 16 16 16 15 15 15 15 15 15 14 14 14 14 14 14 14 14 14 14 14 14 14 14 14 14 14 14 15 15 15 15 15 15 15 15 15 15 15 15 15 15 16 16 16
19 19 18 18 18 18 18 18 18 19 19 18 18 17 17 18 18 19 18 18 18 18 18 17 17 18 17 17 16 16 17 17 16 15 15 14 13 13 14 15 16 16 16 15 15 15 15 15 15 15 14 14 14 14 14 14 14 14 14 14 14 14 14 14 14 14 14 14 14 14 14 14 14 14 14 14 14 14 15 15 15 15 15 15 16 16
18 18 18 17 17 17 18 18 18 18 19 18 18 17 17 16 18 19 18 18 19 19 19 19 18 17 17 16 16 16 17 17 15 14 14 14 14 14 15 15 16 16 16 15 15 15 15 15 15 14 14 14 14 14 14 13 13 13 13 13 13 13 13 13 13 13 13 13 13 13 13 13 14 14 14 14 14 14 14 14 14 14 15 15 15 16
18 18 18 18 17 17 18 17 17 18 18 17 17 17 17 16 17 17 17 17 18 18 18 19 19 18 17 16 16 16 16 15 14 14 13 14 15 15 16 16 16 16 15 16 15 15 15 14 14 14 13 13 13 13 13 13 13 13 13 13 13 13 13 13 12 12 12 12 13 13 13 13 13 13 13 13 13 13 13 14 14 14 14 14 14 15
Height
764 777 783 782 782 778 775 776 776 775 776 780 782 785 792 801 802 797 795 790 786 801 810 805 810 815 813 812 811 813 814 815 819 821 821 820 817 815 814 815 815 816 815 814 816 818 820 823 825 827 829 831 834 835 838 840 842 843 845 847 849 851 853 854 855 857 858 859 860 861 862 863 864 865 866 867 868 868 869 869 870 871 872 872 873 874
767 783 785 777 775 772 771 772 772 774 777 780 782 784 788 794 796 792 792 791 786 799 812 807 812 817 813 813 813 813 815 816 817 819 820 818 816 816 814 814 815 814 813 813 815 817 819 822 824 826 828 830 832 834 837 839 841 843 844 846 848 850 852 854 855 856 857 859 860 861 862 863 864 865 866 866 867 868 869 870 870 871 872 872 873 874
780 785 778 771 770 770 771 770 771 775 778 781 781 783 790 791 795 797 793 790 789 801 813 811 815 820 814 812 814 814 815 815 816 817 818 819 817 816 814 813 813 815 814 813 814 816 818 821 823 825 828 829 831 833 836 839 840 842 843 845 848 850 852 853 855 856 857 859 860 861 862 863 864 865 865 866 867 868 869 869 870 871 871 872 873 873
790 782 770 767 768 770 774 771 772 777 778 780 780 785 792 789 795 806 800 793 793 799 809 811 817 822 817 815 815 815 816 816 816 815 815 819 820 816 812 811 811 813 814 814 814 815 817 820 822 824 827 828 830 832 835 838 840 841 842 844 847 849 851 853 855 856 857 859 860 862 863 863 864 865 866 866 867 868 868 869 870 870 871 872 872 873
784 771 761 765 768 770 775 774 774 781 782 780 777 782 789 786 785 793 793 793 797 802 804 808 825 830 821 821 821 815 816 818 816 814 814 819 820 816 813 810 810 811 812 813 814 814 816 819 821 823 825 827 829 832 834 836 838 840 842 844 846 848 850 852 854 855 857 858 860 861 862 863 864 865 866 866 867 867 868 869 869 870 870 871 872 873
777 763 758 766 769 769 775 776 774 779 784 782 775 773 777 781 784 787 788 794 812 823 809 804 831 841 824 821 822 816 817 819 817 815 816 819 819 817 815 812 810 810 809 810 812 813 815 817 820 822 824 826 829 830 833 835 837 840 842 843 845 847 849 851 852 854 856 857 859 859 860 861 862 864 864 865 866 867 867 868 868 869 870 871 872 873
769 759 758 765 768 769 774 775 769 771 783 785 771 762 768 776 785 791 789 798 818 823 805 796 818 839 833 823 818 816 819 819 817 817 817 818 818 816 815 813 811 810 808 808 810 811 813 816 818 820 822 824 827 829 832 835 837 839 841 843 844 846 848 850 851 853 855 856 857 858 859 860 861 862 863 864 865 866 867 868 868 869 870 871 872 872
761 759 762 763 766 770 774 774 764 763 779 780 760 756 768 774 782 787 787 795 802 802 803 798 804 830 841 825 814 814 820 822 820 819 819 817 816 813 813 811 810 810 808 807 809 810 811 814 816 818 820 823 825 828 831 833 836 838 840 842 844 845 847 849 850 852 853 855 856 857 858 859 860 861 862 863 864 865 866 867 868 869 870 870 871 872
754 759 762 761 767 771 769 764 756 757 770 765 750 755 763 766 773 778 784 792 791 800 822 812 798 826 841 822 813 818 822 825 821 819 818 816 814 813 811 811 811 810 807 805 807 808 809 812 814 816 819 822 824 827 829 832 835 837 839 841 843 844 846 848 849 851 852 853 854 856 857 857 859 860 861 863 864 865 866 867 868 868 869 870 871 872
752 750 750 755 765 766 759 752 748 754 761 750 745 753 758 764 769 772 783 791 791 807 828 814 797 820 837 824 820 826 823 819 816 814 814 812 811 811 809 811 814 813 808 804 805 806 807 810 812 815 818 821 823 825 828 831 833 836 838 840 842 843 845 847 848 850 851 852 854 855 855 856 858 859 861 862 863 864 865 866 867 868 869 870 870 871
748 740 740 747 753 751 747 745 743 746 748 743 746 754 762 772 773 777 788 791 803 818 816 804 794 807 830 829 819 817 809 802 805 809 810 808 807 807 806 808 813 815 811 805 804 805 806 809 811 814 817 819 822 824 827 830 832 834 837 839 840 842 844 845 847 848 850 851 853 854 855 856 857 859 860 861 862 863 864 865 866 867 868 869 870 871
748 746 745 740 737 738 742 745 741 739 739 744 753 758 772 785 787 800 809 803 818 826 803 792 791 798 821 824 808 800 793 789 796 800 802 804 803 802 803 804 807 810 809 805 803 804 806 808 810 812 815 818 821 823 825 827 830 832 834 837 839 841 842 844 846 847 849 850 852 853 854 856 857 858 859 860 861 862 863 864 865 866 867 868 869 870
753 750 745 738 732 732 743 752 748 743 742 749 758 763 782 803 812 825 828 816 819 812 787 783 792 801 811 804 792 791 789 787 790 790 792 797 800 800 801 802 803 805 806 803 802 803 804 806 808 811 813 816 819 821 823 825 827 829 832 834 836 838 840 842 844 845 847 849 850 852 853 855 856 858 859 860 861 862 862 863 864 865 866 867 868 869
763 752 742 743 739 730 739 755 759 756 752 754 761 768 784 805 823 833 826 816 813 800 781 778 792 807 807 793 785 786 785 784 784 785 788 792 796 798 799 800 801 802 801 801 800 802 802 803 806 808 812 814 817 818 820 822 825 827 829 832 834 836 838 840 842 844 845 847 849 851 852 854 856 857 858 859 860 861 862 863 863 864 865 866 867 868
778 771 750 745 743 734 736 745 751 753 754 754 752 760 773 783 800 815 811 806 805 800 793 790 800 812 810 799 786 779 779 781 783 784 786 790 793 795 798 799 800 800 799 799 800 801 802 803 805 807 810 813 815 817 819 821 823 825 827 829 832 834 836 839 840 842 844 845 847 850 851 853 855 856 857 858 859 860 862 863 863 864 865 866 867 867
779 774 747 735 733 730 735 735 735 745 756 754 747 757 767 764 771 784 786 782 786 801 810 808 812 812 803 797 786 778 780 782 784 786 788 793 794 796 800 800 799 800 799 800 802 802 805 807 808 808 810 812 814 816 818 820 822 824 826 828 830 832 834 837 839 841 842 844 846 848 850 852 854 855 856 857 859 860 861 862 863 864 865 866 866 867
781 771 746 737 733 725 729 731 730 743 756 755 755 762 757 747 754 770 778 771 776 809 824 817 821 816 802 798 790 784 786 785 786 789 790 794 795 797 800 800 800 800 800 803 804 804 808 812 813 811 811 811 812 813 816 818 820 822 825 827 829 831 833 835 837 839 841 843 845 847 849 851 853 854 855 856 858 859 860 862 862 863 864 865 866 867
776 774 752 743 744 729 720 728 730 732 742 755 763 757 745 746 752 763 781 784 793 824 832 821 827 826 816 813 802 794 795 792 791 793 793 795 796 799 801 801 802 803 804 806 807 809 812 813 813 811 809 809 809 812 814 816 818 820 823 826 828 830 831 833 835 838 840 842 844 846 848 851 852 854 855 856 857 858 859 861 862 863 864 865 866 866
766 776 760 742 746 736 722 734 745 736 733 744 752 746 748 767 771 768 780 791 809 836 837 828 829 826 822 818 808 804 805 803 800 797 798 800 800 803 804 804 806 806 808 811 812 813 813 812 812 810 808 809 810 814 814 814 816 818 821 824 826 828 830 832 834 836 839 841 844 846 848 850 852 853 855 856 857 858 858 860 861 862 863 864 865 866
759 775 772 748 740 739 735 745 758 754 740 738 745 746 750 763 769 770 773 781 805 831 838 838 836 827 819 813 809 812 814 814 812 807 805 806 806 808 808 808 809 810 812 813 811 810 810 812 812 809 809 810 812 814 814 814 815 816 820 823 825 828 830 832 834 836 839 842 845 848 849 851 852 853 854 855 856 857 857 859 860 861 862 863 864 865
758 771 779 759 742 745 753 754 755 756 752 752 758 760 759 759 761 765 767 769 788 816 832 840 841 831 817 809 811 815 814 814 814 811 811 810 809 810 810 809 810 810 812 812 808 807 809 811 812 811 810 810 812 815 815 815 815 816 819 822 826 829 831 833 835 837 840 844 848 850 851 852 852 853 854 854 855 856 857 858 858 859 861 862 863 864
766 772 778 770 759 758 757 748 742 745 749 755 761 761 760 761 764 775 780 775 779 799 815 825 837 835 818 808 809 810 810 809 808 810 812 812 811 811 811 811 811 810 811 810 807 807 809 810 811 812 812 812 814 816 816 816 816 817 820 823 827 830 833 836 837 839 842 846 850 851 850 851 851 851 852 853 854 855 855 857 857 858 859 860 861 862
766 772 778 776 768 762 754 743 739 741 741 747 753 754 756 757 761 776 787 784 785 795 799 808 831 836 817 806 806 806 806 806 806 809 811 813 813 813 813 814 814 813 813 812 810 809 811 812 812 813 813 815 816 816 817 817 818 820 822 824 827 830 834 838 839 840 842 845 847 847 847 849 849 850 850 851 852 853 854 855 856 857 857 858 859 860
765 775 781 778 767 757 749 741 740 739 742 751 755 752 756 759 758 763 770 776 789 801 801 811 834 836 818 808 806 804 805 806 807 809 811 814 815 815 816 816 816 816 816 815 814 813 814 815 815 815 815 816 816 817 818 819 820 822 823 825 827 829 833 838 840 840 841 841 841 841 842 846 848 850 850 850 851 851 852 853 854 854 855 856 857 858
773 779 783 786 783 775 770 766 764 758 755 762 763 756 756 756 754 758 762 771 789 800 798 812 835 834 817 811 809 806 808 809 809 809 810 813 815 816 817 817 817 818 818 818 818 817 817 817 817 817 817 817 818 818 819 820 822 823 824 825 826 827 832 837 839 839 839 839 840 840 841 843 845 848 849 849 849 849 850 851 852 853 854 854 855 856
775 779 781 793 802 803 803 799 791 781 770 768 766 760 758 755 753 760 766 776 793 800 797 809 828 829 818 814 813 811 810 812 812 811 811 812 814 816 817 817 818 818 819 819 819 820 820 819 819 819 819 819 819 819 820 822 824 825 825 827 827 829 832 835 836 836 838 838 839 840 841 842 843 845 847 847 847 848 849 850 851 852 852 852 853 854
776 779 779 789 797 799 798 791 780 776 775 773 771 766 762 757 754 760 770 780 790 799 805 807 812 820 820 815 815 814 812 814 815 814 815 814 814 816 817 818 818 818 820 820 820 821 822 821 822 821 821 821 820 821 821 822 824 826 826 827 828 829 831 832 832 833 835 837 838 839 840 841 842 843 845 846 846 847 848 849 849 850 850 851 851 852
780 785 781 783 786 785 783 778 770 770 773 773 773 771 766 762 759 762 772 780 783 795 812 810 801 810 816 811 811 812 811 812 814 815 816 815 815 817 817 818 819 819 820 820 821 823 823 824 824 823 823 823 822 823 823 823 825 826 826 826 827 828 829 830 830 831 833 835 836 837 837 839 840 842 844 845 845 846 847 847 847 848 849 850 850 850
785 793 786 782 783 779 776 773 768 768 770 773 777 776 771 768 767 766 772 777 775 783 801 806 801 806 808 803 805 807 806 809 811 812 814 815 816 818 818 818 819 821 822 822 823 824 825 826 826 825 825 824 824 824 824 824 825 826 827 827 826 827 829 829 829 830 831 833 834 835 836 837 839 841 843 843 843 844 845 845 846 847 847 848 848 849
787 796 790 786 786 781 777 775 769 767 771 777 781 779 774 772 770 769 773 775 773 779 790 798 803 806 804 802 801 801 803 805 808 811 814 816 818 819 818 819 820 821 823 823 824 825 826 827 827 826 826 825 825 826 826 826 827 827 829 829 828 828 828 829 830 831 832 834 835 836 837 838 839 840 841 842 842 842 843 844 845 845 845 846 846 847
785 794 792 789 789 787 783 779 774 772 775 782 785 781 777 774 772 775 780 781 784 792 796 799 807 811 809 804 802 802 804 806 810 814 815 816 817 818 819 820 820 821 822 823 825 826 827 827 828 828 827 826 826 827 828 829 830 830 832 832 832 831 830 830 831 832 833 835 836 838 839 839 839 840 841 841 841 841 841 842 843 843 843 843 844 845
786 792 794 794 798 797 791 787 782 774 775 784 789 786 783 780 777 777 779 780 785 796 803 807 812 813 809 805 804 806 807 809 813 815 815 816 816 817 820 820 820 821 822 823 825 826 827 827 828 828 829 828 828 828 830 831 832 833 833 834 834 833 833 832 833 833 834 835 836 837 838 839 839 840 841 840 840 840 840 841 842 842 842 842 842 843
792 795 798 803 808 805 798 792 783 777 787 800 797 789 786 782 778 777 778 778 779 786 798 804 804 803 803 802 804 807 809 811 813 814 815 816 816 817 820 821 821 823 823 824 825 826 827 828 828 829 829 829 830 830 831 832 833 834 835 835 835 835 835 835 835 836 836 836 837 837 838 839 838 839 841 841 840 840 841 841 841 841 841 841 840 841
797 797 800 804 810 812 803 790 785 794 812 813 795 783 782 780 779 782 784 783 780 779 784 789 793 798 802 802 804 806 808 810 812 813 813 814 815 818 820 821 822 822 823 824 826 827 829 830 830 830 830 830 831 832 833 833 834 836 836 836 837 837 837 837 837 838 838 838 839 839 839 839 839 840 843 843 841 841 841 841 841 840 840 840 839 839
801 801 802 802 808 812 802 795 806 819 817 801 786 781 779 777 779 784 786 786 784 782 785 790 796 800 803 805 808 809 810 811 812 814 814 815 815 818 820 822 822 822 824 826 828 829 830 830 830 830 830 831 832 833 834 834 835 836 837 837 838 839 839 839 839 840 840 841 843 842 841 841 842 843 844 843 841 841 841 840 840 839 839 839 838 838
802 804 805 804 806 810 808 811 821 820 805 792 789 786 781 778 781 787 794 795 790 788 791 797 800 799 801 807 811 811 812 813 815 817 818 818 818 818 821 823 824 825 827 828 829 830 831 831 831 831 831 831 832 833 834 835 836 836 837 838 840 841 841 841 841 841 841 843 844 845 845 845 845 844 844 843 842 841 841 840 839 839 838 838 838 837
800 805 809 810 810 813 817 818 816 811 807 804 799 793 790 789 786 789 801 806 799 795 795 797 799 800 800 805 809 811 814 817 823 826 822 820 821 821 822 824 826 827 829 830 831 831 831 833 833 832 832 832 833 834 835 837 837 838 838 840 841 842 842 841 841 841 842 842 843 844 845 845 845 844 843 843 842 842 841 840 840 839 838 837 837 836
798 804 809 815 816 815 818 821 819 821 822 814 805 797 792 792 787 784 799 811 807 803 804 800 797 798 800 804 807 809 814 824 834 834 826 823 824 823 825 827 828 829 831 832 833 833 833 835 834 834 835 834 835 836 837 838 839 839 840 841 842 842 842 842 842 842 842 842 842 843 843 843 843 843 843 843 842 842 841 841 840 839 838 837 836 835
800 803 806 813 818 817 821 826 828 828 822 810 803 797 790 791 785 783 803 820 813 807 813 812 806 801 800 803 807 808 815 829 838 835 827 825 825 825 827 829 830 832 833 834 835 835 836 837 836 836 837 837 838 839 839 839 840 841 842 843 843 843 843 843 843 843 842 842 842 842 842 842 842 842 843 842 841 840 840 839 838 838 837 835 834 833
806 808 809 815 819 819 823 827 825 822 815 805 801 797 793 789 784 793 818 825 810 804 812 815 815 810 803 801 805 808 815 824 830 829 826 825 826 827 829 831 832 833 834 835 837 837 838 838 838 839 840 841 841 841 841 841 841 842 843 843 843 843 843 844 844 843 843 843 842 842 842 842 842 842 842 841 840 839 838 837 836 835 833 832 831 830
813 813 815 819 820 820 823 826 823 817 810 803 800 797 792 788 792 809 822 815 803 804 807 808 814 816 811 807 807 809 812 814 818 822 823 824 826 829 830 832 833 834 835 836 837 838 839 840 841 842 843 843 844 843 843 843 843 844 844 844 844 844 845 845 844 843 843 843 842 842 841 840 841 841 840 840 839 838 837 835 834 833 832 831 831 831
819 818 819 820 821 820 820 822 825 821 809 800 799 795 790 797 810 816 811 803 802 804 801 802 807 810 811 811 809 808 812 813 815 820 822 823 826 829 831 832 834 835 836 837 838 839 840 841 842 844 844 845 845 845 845 845 845 846 846 845 846 846 846 845 845 844 844 843 842 842 841 840 840 840 839 839 838 837 836 835 834 834 833 833 833 833
819 822 825 823 821 822 823 824 830 828 812 800 800 799 798 806 813 810 804 803 803 800 798 801 802 802 805 807 807 809 813 816 818 821 822 825 827 829 831 833 834 836 837 838 839 840 841 842 844 845 845 846 846 846 846 846 846 847 847 847 847 847 847 846 845 845 844 844 843 843 842 842 841 840 839 838 837 836 835 835 834 834 834 834 834 834
817 821 826 825 822 826 832 831 826 820 810 801 803 806 806 806 805 803 804 805 803 800 800 801 802 802 803 805 808 812 815 818 821 822 823 827 829 831 833 834 835 837 839 839 841 841 842 843 845 845 846 847 847 847 847 847 847 847 848 848 848 848 848 847 847 846 845 845 844 843 843 843 842 841 840 839 838 837 836 835 835 834 834 834 834 833
818 816 818 820 818 820 825 822 814 809 806 803 802 804 805 804 803 804 805 804 804 804 803 803 805 806 805 805 809 813 816 819 822 822 824 827 829 831 834 835 836 838 839 840 842 842 843 844 845 846 847 847 847 848 848 848 848 848 848 848 849 849 848 848 847 847 846 845 845 844 843 842 841 841 840 840 839 839 837 837 835 834 834 834 833 833
816 813 812 815 816 816 816 814 811 809 809 806 803 803 804 804 804 804 805 805 806 805 804 806 809 809 808 808 810 813 817 819 821 823 825 827 829 831 833 835 837 838 840 841 842 843 844 845 846 846 847 847 848 848 848 848 848 848 848 848 848 848 848 847 847 846 845 845 844 843 843 841 840 839 839 838 838 838 838 838 837 835 835 834 833 832
815 813 813 816 818 819 818 815 812 812 811 808 805 805 804 804 804 805 806 807 807 806 806 808 810 811 813 813 813 816 819 820 821 825 826 827 830 832 833 835 837 838 840 841 842 843 844 845 846 847 847 848 848 848 848 848 848 848 848 847 847 847 846 846 846 845 845 844 843 843 842 841 840 838 837 836 836 836 836 836 836 836 835 834 833 832
815 814 816 819 820 820 820 816 813 812 812 810 810 809 808 807 807 806 807 808 808 808 809 809 810 812 815 817 818 819 821 822 823 825 827 828 830 831 833 835 837 838 840 842 842 844 845 845 846 847 847 848 849 849 849 849 848 848 848 847 847 847 846 846 846 845 845 844 844 843 842 841 840 839 838 837 835 835 834 834 834 834 834 833 833 832
815 816 818 819 820 820 819 817 814 812 812 812 812 813 812 811 810 808 809 809 809 810 811 811 812 812 814 817 819 819 822 824 824 825 827 830 831 832 834 835 837 838 840 841 843 844 845 845 846 847 847 848 849 849 849 849 849 849 848 848 848 847 846 846 846 845 845 845 844 843 843 842 841 840 839 838 837 836 835 834 833 832 832 831 832 831
816 818 818 820 823 823 820 817 815 816 817 815 814 813 813 813 812 810 810 810 810 811 812 813 815 815 815 817 818 819 821 824 824 825 828 830 831 834 835 835 837 838 839 841 843 844 844 845 846 846 847 848 848 849 849 849 849 849 848 848 848 847 847 846 846 845 845 844 844 843 843 842 841 840 839 839 837 836 835 834 833 832 831 830 829 829
814 815 815 818 822 820 816 815 815 816 817 816 815 814 813 813 813 813 814 814 812 811 811 812 814 816 817 818 818 819 821 823 824 826 828 830 832 833 834 834 836 837 839 841 842 843 844 845 846 847 848 848 848 849 849 849 849 849 848 848 847 847 846 846 845 845 844 844 843 843 842 841 840 839 838 837 836 835 834 832 831 831 830 830 828 827
Wind_Speed
2 3 3 5 5 7 7 6 7 8 5 3 4 0 7 6 4 6 6 9 12 7 3 6 7 8 10 9 9 8 8 10 9 8 7 6 6 9 10 10 11 10 9 18 24 24 28 30 30 32 32 31 28 29 32 31 30 29 28 26 25 23 23 22 21 20 21 22 20 19 17 17 19 18 15 14 12 11 10 11 11 11 12 11 9 9
3 3 6 7 7 8 7 7 8 8 6 4 5 3 5 7 5 8 9 11 9 4 2 5 7 7 8 8 7 7 10 10 10 9 7 7 7 7 9 11 12 8 9 16 18 21 28 29 31 32 31 30 29 31 33 32 31 30 28 28 27 25 25 23 21 22 22 21 20 19 18 17 17 16 15 14 13 12 10 10 10 11 12 12 10 9
2 4 7 8 8 7 7 8 8 8 6 5 5 1 3 6 6 6 8 12 7 1 3 7 6 5 5 7 7 5 5 5 5 3 0 3 5 7 9 12 12 8 10 13 12 18 26 28 31 31 29 30 32 34 34 33 32 31 29 29 28 27 26 23 21 23 23 19 18 18 17 17 16 14 14 13 13 12 10 10 10 11 12 12 11 10
4 6 9 9 7 7 9 9 8 7 4 5 4 2 4 9 10 6 8 11 6 2 5 8 6 3 2 4 6 4 2 4 4 3 3 4 4 4 7 9 11 10 12 13 10 15 23 27 29 29 28 29 32 33 33 32 32 31 30 30 30 28 27 25 21 22 23 18 17 16 15 16 15 14 14 13 13 12 10 9 9 11 11 11 11 10
6 8 9 9 8 8 9 9 8 5 4 6 5 4 7 11 10 9 13 11 6 4 5 9 6 2 0 2 4 4 3 3 3 4 3 3 6 4 2 5 8 9 12 13 11 13 20 24 26 28 29 29 31 32 32 33 31 31 32 31 30 28 27 27 22 22 24 19 18 17 16 17 16 15 15 15 16 14 11 10 10 11 10 10 11 11
8 10 7 9 10 9 8 9 8 6 4 6 5 8 11 10 5 8 15 11 5 3 6 6 4 2 2 3 5 5 6 5 4 4 5 4 4 5 4 3 4 7 12 12 11 15 19 23 26 27 29 29 30 31 33 33 31 31 32 30 29 27 27 28 24 24 25 20 19 21 20 21 20 19 18 18 19 17 15 12 11 11 10 10 11 11
7 10 7 9 11 9 8 8 8 8 5 4 7 11 13 13 9 11 15 11 4 4 9 8 3 1 2 4 6 7 7 8 6 5 5 5 4 5 5 4 3 5 10 11 11 15 18 22 24 25 28 30 29 31 32 31 30 31 32 30 29 27 26 28 26 24 25 21 20 23 22 22 22 22 21 19 19 18 16 14 12 11 11 11 11 11
7 9 7 10 11 8 7 7 8 8 7 5 7 12 16 16 17 18 15 8 3 4 7 8 2 4 3 4 6 8 9 9 9 8 7 6 7 7 7 6 4 6 8 11 11 14 18 22 25 26 28 30 30 31 31 30 30 32 32 30 29 27 25 27 27 24 24 22 22 22 22 23 23 21 20 20 20 18 16 15 13 12 12 12 12 11
6 9 9 10 9 7 6 8 9 7 6 7 5 11 16 17 19 19 12 5 4 6 6 7 3 4 2 2 5 7 8 11 12 13 12 10 10 10 8 7 5 5 7 11 12 14 19 23 26 28 29 30 30 32 32 30 31 32 32 30 29 28 25 26 28 25 23 23 22 21 21 23 23 19 18 20 20 19 18 17 15 13 13 13 13 12
7 8 10 9 7 7 8 10 9 7 7 8 5 9 10 13 15 15 9 3 4 5 5 10 6 4 2 2 4 6 8 12 13 12 12 13 12 11 10 6 4 7 6 8 12 16 22 25 28 30 30 30 31 32 32 30 31 32 32 30 30 29 26 25 28 26 23 23 22 20 21 23 23 20 19 20 20 20 20 19 18 16 14 14 14 14
8 6 6 7 7 9 9 9 8 9 9 5 4 6 6 8 9 6 3 1 2 1 5 13 10 5 2 3 6 6 6 11 12 10 12 14 14 15 12 9 6 8 8 6 9 14 23 27 28 30 30 30 31 31 31 30 31 32 32 30 30 30 27 25 26 26 23 23 22 20 21 22 21 19 20 20 19 20 21 20 20 19 16 15 15 14
5 4 4 4 7 8 9 8 7 8 9 4 3 4 5 4 4 4 0 1 2 2 7 13 11 5 3 4 9 10 5 9 13 13 15 16 16 15 12 11 12 11 9 6 7 12 18 21 24 27 29 29 31 31 30 30 32 33 33 32 31 31 29 26 26 26 24 23 23 21 20 20 20 19 19 21 20 18 19 19 20 20 18 17 16 16
4 4 5 4 4 6 6 6 5 5 4 3 4 4 5 3 3 4 4 4 4 4 7 12 10 3 3 4 9 13 8 9 12 11 14 15 13 12 10 11 12 11 9 6 7 10 12 16 20 24 27 28 30 32 31 31 33 34 34 34 33 32 31 29 27 27 25 25 25 24 21 19 19 20 19 20 20 18 16 18 21 21 21 19 18 17
3 5 5 4 3 3 6 4 4 4 2 4 5 4 5 5 5 5 5 4 4 4 3 11 10 3 3 3 6 12 9 8 11 9 10 12 13 13 11 10 10 8 7 6 7 9 10 15 21 24 26 28 29 32 33 32 33 35 35 35 35 33 33 31 29 28 27 26 27 26 24 21 18 20 20 19 20 19 16 17 20 21 20 20 18 16
2 4 5 6 4 3 4 6 6 3 1 3 4 5 5 5 5 5 5 4 5 3 5 7 5 3 2 3 3 8 7 6 9 7 7 8 9 10 9 9 8 5 5 5 5 6 7 12 20 24 25 27 29 31 31 32 33 34 35 36 36 34 33 32 31 30 29 28 28 27 27 24 20 20 20 19 20 20 17 17 18 18 18 18 17 16
1 4 5 4 5 5 4 4 5 4 1 3 2 6 3 5 5 3 5 5 5 5 3 2 0 1 2 3 6 5 8 7 8 7 7 7 7 8 8 8 7 5 5 4 4 4 7 10 7 12 16 22 28 31 29 30 32 33 34 36 36 35 34 33 32 32 31 29 28 27 28 27 23 20 19 19 21 21 19 18 17 17 17 16 16 15
2 4 6 5 2 6 7 4 5 5 2 2 1 2 5 5 6 3 3 2 5 6 1 1 2 2 1 1 7 5 7 8 8 8 8 8 7 8 7 7 6 4 2 5 4 3 12 18 14 12 12 17 25 30 30 30 32 34 33 34 35 34 34 34 33 32 31 30 28 27 27 27 25 21 19 19 20 19 19 18 18 17 16 15 15 15
1 3 7 3 2 8 7 5 4 2 4 3 1 4 4 2 4 3 2 2 5 5 1 2 2 1 0 0 3 2 6 8 8 8 7 7 7 5 4 3 3 4 6 7 6 6 15 18 11 10 14 20 24 27 29 32 34 34 34 34 33 33 33 33 33 32 31 30 29 27 26 27 26 22 19 19 19 18 18 18 17 17 17 16 15 16
2 1 6 2 2 6 1 6 2 3 1 4 2 2 0 2 1 0 2 3 3 4 2 2 1 1 0 2 3 2 5 6 7 9 8 7 6 4 4 6 7 9 9 7 7 5 9 15 17 18 20 21 21 22 27 33 34 33 33 34 33 33 34 33 33 32 31 30 28 27 26 25 25 23 21 19 18 17 18 18 17 17 18 18 16 16
2 2 3 6 4 2 3 4 3 3 4 1 3 3 1 3 3 2 2 4 5 4 3 2 1 1 2 2 3 4 6 5 4 7 9 8 9 7 6 6 6 7 6 5 7 7 8 12 17 22 22 22 22 23 25 29 31 31 31 32 32 31 31 30 29 29 29 28 27 25 24 23 23 23 21 20 19 18 18 17 17 17 17 17 18 17
3 3 2 7 5 1 2 0 5 5 2 1 3 3 1 1 0 2 1 1 5 5 4 4 1 2 3 1 4 7 8 4 2 7 9 8 9 9 7 7 6 6 6 5 6 6 8 11 14 16 17 21 23 21 20 23 26 27 26 28 28 27 26 26 26 26 25 22 19 17 18 19 20 21 21 21 20 19 19 18 18 17 17 17 18 19
2 2 1 4 4 1 2 4 4 7 5 4 2 2 2 2 2 2 1 2 3 4 5 5 4 1 3 1 5 9 8 6 6 9 10 8 10 10 9 10 8 7 6 5 4 4 6 9 10 10 10 12 13 13 14 16 21 22 21 21 18 15 18 15 10 11 12 13 14 13 13 16 19 20 19 20 21 21 20 20 19 18 18 18 18 18
1 1 1 2 3 3 5 5 2 3 5 4 1 1 1 2 4 4 2 2 3 4 3 4 3 2 2 3 4 9 8 6 7 9 10 9 8 9 10 10 10 9 8 7 6 6 6 5 5 6 7 8 7 9 10 10 13 15 15 14 11 12 15 7 9 9 10 15 21 21 18 17 19 21 20 18 20 21 21 21 21 21 20 20 19 18
1 1 2 3 4 4 4 5 7 6 6 4 2 2 2 1 2 5 4 3 3 3 3 4 3 2 1 2 3 8 8 7 8 9 10 9 7 8 9 8 8 9 8 8 7 8 8 6 5 6 7 8 6 6 7 7 8 10 9 8 10 17 18 8 7 10 12 18 24 24 22 19 17 19 19 17 18 20 20 20 21 22 22 21 20 20
2 1 2 3 4 5 6 6 8 8 5 2 3 4 3 2 1 3 3 4 3 2 4 5 3 2 3 3 4 8 9 8 8 9 9 9 8 8 7 7 7 8 8 8 8 9 10 9 8 8 8 8 7 6 8 8 8 8 9 10 13 19 17 12 15 15 10 13 18 18 20 21 19 18 18 19 20 20 19 18 18 21 22 21 21 21
1 1 2 4 3 2 2 2 2 4 3 2 4 6 6 5 5 3 4 4 2 3 4 5 5 4 4 5 5 7 9 8 8 8 8 8 9 8 7 6 6 7 8 8 8 8 9 10 11 11 12 12 12 10 9 10 10 14 19 18 15 15 14 13 19 17 11 11 14 14 16 19 19 18 17 20 22 21 20 18 17 18 20 20 20 20
2 3 3 4 4 4 5 5 4 2 1 3 6 10 9 6 5 4 5 3 4 5 3 1 10 13 9 9 9 8 8 9 8 9 8 7 9 9 7 7 6 7 7 7 8 8 8 10 11 13 15 17 17 14 12 13 14 17 21 19 15 14 16 13 14 14 11 10 12 14 16 15 14 12 13 16 19 20 20 20 20 19 19 20 20 19
3 4 7 4 0 2 4 6 5 2 3 4 7 11 11 9 6 5 4 3 7 6 2 3 12 17 13 12 11 9 9 9 8 8 9 8 9 9 8 9 9 8 8 7 8 8 9 8 9 13 16 18 20 19 18 18 17 18 20 17 13 14 18 17 14 13 12 12 12 13 14 14 13 11 11 13 15 17 18 19 19 20 20 20 19 18
5 3 7 7 6 5 4 5 5 4 5 7 9 10 11 10 7 4 4 7 7 5 5 9 13 15 14 13 12 10 9 9 9 9 9 9 9 9 10 11 11 10 9 9 8 9 9 8 8 11 15 17 18 20 21 21 19 19 18 14 13 16 19 20 18 16 14 13 13 12 10 12 14 14 14 13 13 15 17 17 17 17 19 19 18 17
4 2 7 7 6 7 9 9 7 6 7 9 10 10 10 9 7 5 3 5 5 5 11 14 11 9 7 7 11 11 10 8 8 9 9 9 10 10 10 11 12 11 10 9 9 8 8 9 10 12 15 15 15 17 19 21 21 22 20 17 17 19 19 19 19 17 16 14 13 11 10 10 11 11 11 11 10 11 12 14 14 15 17 18 17 15
4 2 5 6 4 6 10 12 11 8 7 9 10 11 10 9 7 7 7 8 9 9 12 14 11 5 2 3 6 8 9 9 9 10 10 9 10 10 11 11 12 12 11 9 9 8 8 9 11 12 14 13 13 13 15 18 20 21 20 19 19 19 19 19 18 17 17 16 15 13 10 9 8 7 7 8 8 7 8 9 11 14 16 18 17 14
4 2 4 5 4 4 8 11 11 7 7 10 11 11 9 7 4 2 4 7 10 13 13 12 8 5 3 6 7 5 8 10 9 9 9 8 9 11 11 11 11 11 9 8 8 8 8 8 10 11 13 13 13 14 14 15 17 19 18 17 18 18 20 20 18 17 17 16 15 13 11 9 7 6 5 5 5 6 7 7 8 10 13 15 15 12
3 3 2 3 2 4 8 9 7 5 6 7 7 7 6 5 2 3 5 9 14 16 13 9 8 7 9 11 11 10 11 10 8 8 9 9 10 11 11 11 11 10 9 9 8 7 8 9 10 12 11 12 14 14 14 14 16 18 18 17 17 18 20 19 18 17 17 15 13 10 8 8 7 5 3 3 4 4 5 5 5 6 7 9 11 11
4 4 2 2 3 2 8 8 5 5 4 1 5 6 4 7 6 6 7 8 10 9 7 7 8 8 8 9 10 11 11 8 7 7 8 9 10 10 10 10 10 10 10 9 8 8 10 10 11 12 14 15 17 17 15 15 15 17 19 19 19 19 19 18 18 17 17 16 12 8 7 8 7 5 3 2 2 2 2 2 2 2 1 3 5 7
5 4 2 1 3 1 5 6 6 3 1 2 6 7 5 8 9 9 9 6 5 10 13 13 12 11 9 8 7 9 9 9 9 8 8 8 9 10 10 9 10 11 9 8 6 7 9 11 12 13 14 16 18 18 17 15 15 16 18 19 19 18 18 18 17 17 17 16 13 10 8 7 6 6 5 5 5 3 2 2 3 3 3 2 1 2
3 3 2 2 2 0 3 4 2 2 3 4 6 7 5 7 7 8 9 9 6 10 16 14 12 13 15 13 9 9 11 11 10 8 7 8 9 10 10 9 9 9 8 7 7 8 10 12 12 13 12 12 16 18 17 17 16 15 15 16 16 15 15 16 15 15 15 14 12 10 8 6 5 5 6 7 7 6 5 4 3 3 3 3 2 2
4 3 2 2 2 1 2 1 1 2 5 6 5 5 4 3 2 3 5 5 7 5 10 14 15 16 17 15 11 9 10 11 9 6 6 8 9 10 11 11 11 11 10 11 12 14 16 14 13 15 15 13 15 16 16 18 19 17 15 15 15 14 13 13 13 13 13 12 11 10 8 7 7 7 8 9 9 8 7 6 5 5 4 4 4 3
5 4 3 2 1 2 4 2 3 3 2 4 5 6 5 4 2 4 7 3 5 6 4 7 15 17 16 15 13 10 9 9 7 3 4 8 9 10 12 14 15 15 14 15 17 19 19 17 18 20 19 17 16 15 13 13 17 18 17 15 14 13 13 12 12 11 11 11 11 11 10 10 10 9 9 10 11 10 10 9 8 7 7 6 6 6
6 4 4 4 2 2 4 3 0 1 3 5 6 7 8 6 3 5 6 2 1 2 3 1 8 13 15 14 12 10 8 7 5 4 4 7 10 12 12 13 15 16 17 19 21 21 20 21 22 22 21 19 17 14 12 10 12 16 17 15 14 14 14 13 12 11 10 10 11 10 10 10 11 11 11 12 12 12 12 12 11 10 9 9 8 8
5 4 4 4 1 1 3 1 1 2 3 4 5 6 8 6 4 6 3 3 3 4 5 5 4 6 10 13 11 8 7 7 7 6 5 8 13 14 14 13 14 17 19 21 22 22 21 22 23 22 21 19 16 13 12 10 10 12 14 14 15 15 15 13 12 10 9 10 11 10 10 11 12 12 13 13 14 13 13 13 13 13 12 12 11 11
4 2 2 2 0 0 1 1 2 2 3 4 4 6 7 4 5 4 4 5 3 3 6 8 6 2 4 7 7 5 5 6 9 9 9 12 13 13 15 17 19 20 20 20 21 21 22 22 22 21 19 17 14 13 12 11 12 12 12 13 14 14 13 11 10 10 10 10 11 11 11 12 12 13 14 14 14 14 12 12 13 13 14 14 13 13
2 2 2 1 1 1 1 2 1 3 3 3 5 6 5 3 1 3 5 4 3 4 8 10 11 9 7 6 5 6 6 8 12 12 12 14 12 12 15 19 20 20 20 19 19 19 20 20 20 19 17 15 14 13 13 13 14 13 12 12 13 12 10 10 9 9 10 10 11 11 12 13 13 14 15 15 15 15 14 13 12 13 14 14 14 13
1 1 2 1 1 0 1 2 1 2 4 5 5 5 5 2 4 5 1 4 4 2 8 9 9 10 9 8 9 10 11 11 12 12 12 12 11 13 17 18 18 18 19 19 18 17 18 19 18 17 17 15 14 13 12 13 13 12 11 11 10 8 8 9 9 9 10 10 11 12 12 13 14 15 15 15 16 16 16 15 14 14 14 15 15 16
1 2 1 1 1 1 2 0 2 4 6 3 2 1 1 1 4 4 3 4 5 3 3 6 6 7 9 11 12 12 12 11 11 11 12 11 11 13 17 18 19 19 18 19 18 16 16 18 16 15 15 14 13 12 10 11 12 11 10 9 8 6 7 8 8 8 9 10 11 12 13 14 14 15 15 15 16 17 17 17 17 16 16 17 18 18
3 3 3 2 2 2 3 5 5 4 5 3 3 4 2 2 3 4 5 4 4 5 3 4 6 6 9 13 14 12 11 11 11 11 11 10 10 13 16 18 20 20 19 18 17 15 14 15 14 13 12 11 11 11 9 9 9 9 8 8 7 6 7 8 8 8 9 10 10 12 13 14 15 15 15 15 15 16 17 17 17 18 17 18 18 17
3 2 2 2 2 2 1 2 2 3 5 4 3 3 3 4 4 4 6 5 3 4 5 6 6 6 6 10 11 10 9 10 11 11 10 10 10 13 18 19 19 20 19 17 15 13 13 13 12 12 10 9 9 9 8 8 8 8 8 8 7 7 8 8 8 9 10 10 11 12 14 15 16 17 17 16 16 16 16 16 17 18 18 18 18 19
3 3 3 2 1 1 1 3 5 4 5 3 4 5 5 6 4 4 6 5 4 5 7 7 7 7 6 7 8 9 8 9 11 10 9 9 10 13 17 18 17 18 17 15 14 13 12 12 11 9 8 7 7 7 7 7 8 8 9 9 9 9 9 9 10 10 11 12 12 12 14 16 17 18 18 18 18 19 19 18 18 19 19 20 20 20
2 3 2 1 0 1 3 5 6 3 2 3 5 4 5 6 5 5 6 5 5 6 6 7 8 7 6 6 8 9 8 8 10 10 8 7 9 13 16 17 17 17 16 14 14 13 12 11 9 7 6 7 7 7 7 8 8 9 10 10 11 10 10 10 11 11 11 11 12 13 14 16 17 18 19 20 20 21 21 21 21 21 21 20 19 19
1 1 1 1 1 2 3 5 5 3 3 5 6 5 5 6 4 5 7 8 8 7 6 6 8 9 9 9 9 10 10 8 9 10 9 7 9 13 16 18 18 17 16 15 15 13 11 8 7 6 7 8 8 7 6 7 8 8 9 10 10 10 10 11 11 10 10 11 12 13 14 15 16 17 18 19 20 21 21 21 21 22 22 21 19 19
1 2 2 3 1 3 4 3 1 0 1 3 4 4 4 6 5 4 5 6 8 9 8 7 7 8 11 13 12 11 9 7 9 12 11 10 12 16 19 20 18 17 17 16 14 11 8 6 7 9 10 9 8 6 5 5 6 8 8 8 8 10 10 11 11 11 11 12 12 13 14 15 16 16 17 19 20 21 22 22 21 20 21 21 21 20
3 4 4 4 3 4 6 5 4 3 2 4 4 3 3 3 5 6 5 3 1 5 8 9 8 7 7 10 15 15 10 8 13 16 12 12 17 20 21 20 19 18 18 16 12 10 9 9 10 12 10 8 6 5 5 5 6 6 6 7 8 9 10 10 11 11 12 13 14 14 15 16 17 17 18 19 20 21 23 23 23 22 21 20 20 20
Wind_Direction
130 113 200 201 198 221 229 210 216 246 276 320 327 112 155 156 152 154 152 165 155 130 157 159 135 147 153 145 135 131 141 145 152 172 202 222 196 177 172 166 173 173 165 169 167 163 163 163 164 166 167 169 167 164 167 170 170 171 172 173 175 175 173 178 184 184 179 178 178 176 174 173 174 179 182 181 182 183 184 190 190 183 182 184 182 182
118 162 222 216 207 220 234 234 231 244 266 274 279 274 165 167 163 151 153 163 159 124 134 141 127 143 147 139 136 138 150 162 170 176 196 201 182 180 176 167 168 167 164 169 163 155 158 159 161 163 164 165 163 162 166 169 171 171 170 172 176 174 174 181 183 179 177 180 181 178 178 178 177 182 184 182 187 187 185 191 194 189 189 190 188 186
162 217 232 221 214 223 240 248 246 244 246 245 252 262 149 150 113 110 151 160 153 86 139 141 128 127 132 131 133 146 153 147 152 149 174 218 189 177 176 168 162 158 162 169 161 151 155 157 159 161 163 164 162 162 166 168 169 170 169 173 177 174 175 180 178 177 176 176 181 180 181 183 180 183 187 185 187 191 194 198 198 193 193 191 190 190
186 235 230 224 216 217 238 250 254 252 244 240 227 130 141 153 137 137 171 159 123 53 147 134 108 94 79 99 118 129 104 93 113 98 43 319 263 197 181 170 163 161 163 168 162 150 154 157 159 162 163 162 161 162 165 168 169 170 170 173 175 175 178 180 178 181 179 174 179 182 182 186 185 184 188 186 187 195 199 198 198 198 199 197 196 197
216 237 216 216 220 209 226 241 243 244 247 246 219 158 167 171 164 156 160 151 91 66 137 116 81 13 161 134 147 141 128 114 122 131 133 280 290 290 253 185 167 166 167 168 163 152 155 158 160 163 163 161 162 164 167 169 171 172 173 175 177 178 181 182 182 184 182 176 177 182 180 182 184 182 186 187 189 197 200 196 196 196 201 202 199 201
236 244 207 207 226 214 218 234 228 210 223 253 221 182 170 154 129 140 151 147 100 119 184 147 92 307 247 184 185 165 156 161 145 159 185 210 261 292 278 221 186 177 172 168 162 156 157 160 161 163 163 163 165 167 169 171 174 175 177 178 179 181 183 184 183 183 185 183 180 183 182 179 179 179 184 188 190 196 201 201 199 193 195 198 198 199
234 241 211 205 222 218 218 236 227 193 187 248 220 182 157 131 132 162 160 152 138 169 197 198 134 112 246 233 198 174 169 174 164 172 191 196 218 251 255 235 213 194 176 166 162 159 159 160 161 163 164 165 168 170 170 172 175 177 178 180 181 184 186 185 183 182 187 190 189 190 188 183 181 182 185 190 192 197 202 203 201 195 194 194 195 196
223 227 217 209 217 218 216 235 230 181 163 242 221 169 153 145 157 175 171 159 147 125 173 207 134 102 223 235 189 174 173 179 182 185 186 197 210 220 244 246 223 211 185 167 163 162 163 163 164 166 167 168 169 171 171 173 176 179 180 183 184 185 188 187 184 185 190 194 196 196 193 190 188 187 186 188 193 199 201 201 199 196 195 193 194 197
225 214 214 207 209 216 215 230 224 172 173 238 207 156 161 161 165 176 176 159 125 113 159 210 141 99 243 233 147 165 181 192 196 191 185 192 201 205 227 249 254 245 202 172 168 167 166 167 167 168 169 169 170 171 173 175 178 180 182 184 186 188 190 189 187 189 194 197 200 200 195 191 190 189 186 187 194 200 201 200 198 195 193 193 199 206
240 218 206 194 199 217 221 229 222 182 207 232 171 144 159 167 170 173 173 151 112 116 178 206 175 118 234 225 149 169 197 203 198 191 188 189 192 196 209 227 283 287 247 182 172 172 170 170 170 169 170 170 170 172 175 177 179 180 182 184 186 189 189 188 190 194 196 200 205 203 193 187 186 187 188 188 194 201 202 202 202 197 191 191 200 209
246 241 214 189 191 212 217 224 222 205 217 229 146 128 126 155 167 154 153 108 85 72 212 204 188 142 157 220 192 195 206 194 187 187 190 191 190 193 198 189 192 250 254 196 173 175 172 171 170 168 170 172 172 174 175 178 181 181 182 185 186 188 188 188 193 196 197 201 206 204 195 190 186 185 187 188 193 199 202 204 205 201 194 192 199 207
270 277 248 208 183 195 211 224 231 223 222 208 145 128 99 126 134 99 305 244 148 238 235 208 192 154 158 220 209 212 211 176 181 189 190 192 193 192 191 181 184 215 230 196 173 174 171 171 169 168 170 172 173 175 175 178 182 183 184 186 187 188 189 190 194 197 198 201 205 203 198 195 193 190 188 190 195 200 206 208 204 201 199 197 201 208
297 257 241 237 194 171 179 216 243 259 241 159 129 112 99 130 147 147 205 215 185 236 229 194 180 178 236 240 206 202 197 178 185 194 189 187 187 188 188 183 185 200 204 182 170 174 172 171 170 170 172 172 173 177 179 180 183 185 187 188 189 190 192 193 195 198 198 200 204 204 199 196 197 199 196 197 202 207 211 208 200 198 199 199 201 207
289 262 238 216 231 160 128 159 219 252 238 155 151 137 127 146 161 180 194 185 198 231 170 153 159 208 271 287 203 183 180 177 181 191 188 181 184 186 185 183 186 192 185 170 166 171 175 176 173 171 171 173 176 180 182 183 184 185 187 190 191 192 194 195 196 198 199 199 203 206 204 198 197 204 204 204 209 211 209 201 196 197 197 198 203 210
195 262 231 186 210 206 140 152 172 175 170 197 177 139 144 162 157 180 188 174 187 172 95 120 156 207 207 297 265 164 152 161 169 178 175 172 184 182 177 182 188 192 179 162 149 149 154 172 178 176 173 174 178 182 183 184 185 186 187 190 192 193 194 196 197 199 200 200 203 206 207 202 199 205 210 211 212 211 208 202 199 200 201 205 210 214
181 252 243 216 207 190 185 178 144 108 31 265 165 115 164 187 148 164 187 165 140 118 74 66 30 322 191 284 336 92 126 150 158 156 157 161 167 165 172 187 187 198 190 135 102 109 73 61 104 154 162 169 175 180 182 182 184 187 189 191 193 194 194 196 198 199 201 203 204 207 207 204 202 206 211 212 210 209 211 211 210 208 209 214 218 218
14 277 288 305 252 195 195 177 126 125 157 269 87 150 218 179 130 140 187 137 92 101 54 29 91 347 239 314 354 49 123 140 144 146 151 154 156 161 174 189 186 195 172 112 114 110 75 63 57 78 117 160 174 177 177 178 185 189 190 192 193 194 195 196 199 200 202 204 205 207 207 205 206 208 209 208 207 209 214 216 219 218 215 218 220 220
114 286 291 310 246 228 203 129 97 126 143 128 168 239 247 115 104 115 139 76 62 97 69 20 129 181 182 131 333 12 114 120 125 128 131 136 145 157 151 138 120 73 60 88 105 79 86 102 117 123 145 172 179 179 177 178 186 191 192 194 194 195 195 196 199 201 202 203 204 205 205 206 209 212 212 210 209 212 214 215 219 222 220 221 224 224
110 323 289 312 240 249 224 91 93 320 8 133 164 256 195 119 164 307 147 148 93 108 119 18 20 166 199 197 184 122 85 85 97 100 96 94 98 96 82 72 67 63 54 69 93 90 106 131 158 173 178 182 180 183 184 182 187 191 193 195 196 197 198 198 200 200 201 203 204 205 205 207 210 213 216 217 214 214 214 215 218 222 223 223 227 229
47 87 289 320 317 262 38 64 170 266 308 63 42 347 61 132 175 177 173 155 122 129 146 80 360 242 256 239 146 93 65 41 40 73 75 69 72 71 70 70 73 82 80 93 120 149 159 153 168 179 183 185 185 190 192 189 189 191 192 194 196 199 199 199 200 200 201 202 204 207 208 210 212 214 217 220 220 219 218 218 220 223 224 223 227 232
20 67 304 318 328 101 82 246 170 165 212 57 33 332 313 32 95 154 202 129 122 139 149 131 170 269 286 241 124 110 106 107 88 82 79 75 75 69 60 63 72 91 107 136 156 163 149 147 167 177 178 184 187 189 193 194 193 191 189 190 193 197 197 199 201 200 197 196 196 201 207 212 215 217 220 222 224 225 223 223 224 222 224 226 228 231
27 29 338 329 340 18 250 253 187 153 148 135 148 229 193 153 117 115 281 320 88 122 148 149 164 248 329 334 131 128 127 129 120 103 94 85 81 76 67 62 59 62 74 101 127 128 121 136 158 163 162 174 178 178 187 197 199 193 184 182 181 185 193 192 178 160 155 163 179 192 201 208 211 211 216 221 224 226 226 226 226 223 225 229 229 229
114 68 2 311 286 263 261 281 310 114 118 117 156 250 111 131 121 122 192 257 65 89 112 107 108 101 338 316 130 125 121 116 109 103 99 91 81 79 77 71 65 60 58 65 73 80 97 123 141 132 130 136 149 171 177 187 199 196 186 175 155 171 190 162 90 104 136 170 192 201 205 211 213 209 208 212 217 221 224 226 227 225 224 226 227 227
5 44 22 316 294 301 311 342 4 24 64 61 347 358 33 332 160 145 161 154 108 110 111 89 87 128 237 285 127 118 118 117 109 104 103 97 85 82 81 77 76 70 64 63 61 64 82 102 106 97 100 99 109 159 159 153 181 196 197 182 177 200 208 191 162 185 185 188 196 200 203 211 218 214 210 210 212 216 220 224 225 223 222 224 226 227
355 16 55 23 356 352 355 7 3 356 20 44 305 320 351 347 38 106 96 72 86 172 145 118 111 139 159 183 146 126 126 123 115 111 110 104 97 93 87 79 78 75 67 63 62 62 67 72 71 72 77 75 77 112 134 139 160 169 157 156 185 204 204 195 199 200 185 186 193 197 205 213 219 219 217 215 213 213 217 220 221 220 220 223 226 229
37 14 77 86 84 68 42 27 320 305 322 329 321 341 359 11 21 61 92 74 94 158 125 116 123 124 144 165 160 145 136 126 116 110 106 106 106 101 96 90 80 76 70 63 63 64 63 61 56 56 59 57 63 82 106 117 124 129 131 141 170 178 163 177 199 196 180 187 192 196 206 212 216 221 225 225 221 219 222 223 221 219 219 220 223 228
104 17 30 104 142 175 186 214 232 234 331 355 358 4 10 13 29 81 101 101 146 130 50 118 145 142 159 171 164 161 145 131 127 120 111 109 108 104 103 97 84 76 71 66 68 67 65 61 53 52 52 51 56 62 71 86 94 105 122 144 172 160 140 154 183 184 179 186 197 209 215 213 215 218 223 228 227 226 230 232 229 227 223 222 222 226
99 21 358 13 13 217 209 240 273 342 38 36 25 17 10 7 27 77 100 133 141 117 19 238 155 147 162 170 161 162 149 136 135 129 123 117 111 111 111 102 91 82 72 65 67 69 70 64 52 55 56 53 54 55 57 65 70 81 104 132 153 139 133 139 144 153 163 169 183 205 218 221 226 226 223 227 229 228 232 236 237 233 228 225 226 228
102 34 346 341 336 344 346 322 334 21 41 44 41 28 10 2 20 67 129 154 149 139 162 180 164 152 158 163 159 156 149 143 139 130 126 124 119 119 116 108 99 89 80 73 69 71 77 75 63 61 60 57 57 57 57 61 63 68 81 103 116 115 124 132 132 139 149 156 168 181 192 205 215 222 225 229 232 233 236 239 239 232 227 226 227 231
100 30 347 347 339 349 360 354 359 24 40 44 40 29 13 5 27 56 98 132 115 118 144 150 146 138 143 156 154 150 146 142 135 130 131 130 129 126 119 114 108 100 94 87 80 77 82 86 82 74 66 61 60 62 63 66 72 75 73 80 94 101 112 120 122 127 132 135 143 151 159 172 187 202 209 212 217 226 233 235 232 227 224 223 223 231
63 30 353 10 5 350 360 2 0 12 46 52 34 21 14 11 33 61 80 91 84 97 124 127 118 112 49 58 111 133 138 133 133 139 141 139 137 129 120 115 112 108 105 101 96 92 90 91 91 88 83 75 69 70 71 74 83 88 86 86 94 100 107 112 113 114 115 116 118 121 127 137 151 167 177 181 190 201 209 213 217 220 220 218 219 228
27 24 6 32 35 341 349 356 351 1 50 50 24 6 5 8 20 74 109 119 118 120 124 123 126 153 145 98 99 129 138 134 139 141 135 131 129 123 118 116 112 109 106 104 105 102 100 98 93 95 100 98 90 86 81 78 83 87 88 91 98 105 109 109 109 107 103 103 108 113 113 109 109 119 140 158 169 183 189 191 201 213 215 216 220 229
13 44 53 57 59 323 329 339 344 12 45 34 352 329 341 10 53 113 111 130 137 134 140 155 162 162 150 138 144 154 148 140 140 134 129 128 120 112 111 111 108 107 102 93 85 77 79 83 78 78 87 96 101 94 78 74 84 89 89 94 101 106 109 109 110 109 104 100 104 111 108 99 93 89 91 120 147 167 180 183 193 204 208 212 218 226
6 58 91 89 103 294 312 332 9 40 59 349 292 296 351 39 65 87 95 126 140 128 124 134 129 129 141 145 148 147 141 134 129 126 126 125 117 110 109 107 104 104 99 92 87 80 82 88 85 76 72 79 92 99 90 85 95 100 95 94 96 97 98 101 103 103 102 103 108 117 113 101 95 90 71 51 77 123 158 158 150 154 180 204 208 219
10 25 13 32 101 222 314 8 41 40 188 245 292 307 8 50 58 61 53 48 84 96 97 103 110 116 113 103 107 114 111 107 104 105 109 112 114 115 110 105 105 103 99 100 99 92 99 106 100 86 75 73 83 97 103 99 102 109 102 90 88 87 85 87 88 87 88 94 100 107 105 97 95 96 74 34 25 36 58 72 69 68 60 55 104 198
52 20 4 20 50 14 12 49 104 231 299 331 327 324 357 32 43 55 41 11 25 101 115 116 114 114 108 102 101 103 102 99 91 87 98 108 114 117 115 114 112 105 106 108 89 82 103 111 98 82 76 74 78 86 92 89 93 107 106 93 88 87 83 80 75 68 68 72 75 79 78 69 61 60 47 28 15 16 28 29 12 16 29 30 37 71
97 70 40 18 13 85 87 59 237 304 344 346 335 323 330 341 348 102 90 10 1 63 119 127 125 122 119 117 116 110 106 101 90 84 105 113 115 117 116 115 113 108 106 96 81 87 106 107 87 76 79 84 84 84 86 84 86 95 100 95 92 88 79 72 64 55 52 50 48 47 46 39 26 19 21 20 14 9 14 15 1 347 338 329 328 347
87 99 111 98 9 69 85 44 357 13 337 275 269 288 303 302 277 127 108 46 351 1 23 122 132 131 127 125 123 121 113 103 101 126 135 119 113 112 111 111 113 112 105 91 84 90 97 89 77 79 84 86 85 86 89 86 82 86 90 88 84 80 72 64 53 42 35 30 28 26 25 24 22 18 12 9 7 3 1 2 3 360 355 346 337 340
45 61 93 91 29 36 81 86 47 203 237 246 258 284 304 310 320 88 80 5 274 68 19 66 137 132 131 130 126 119 113 111 132 183 173 125 112 112 113 113 111 107 99 92 90 89 85 81 81 82 81 79 79 81 89 89 80 78 80 78 74 68 60 52 44 33 23 12 7 10 12 11 13 14 10 3 358 355 352 349 349 349 350 351 351 348
20 21 51 62 18 33 88 115 243 222 238 255 267 284 297 315 22 76 87 263 232 162 148 155 158 143 136 135 132 130 138 145 155 173 160 121 110 111 114 111 106 103 97 93 92 89 84 83 82 80 76 74 75 77 83 89 83 74 71 70 66 56 44 36 28 20 10 358 355 0 2 0 360 359 358 354 349 346 345 346 345 344 344 345 348 347
360 360 59 99 166 358 101 163 271 263 255 271 285 295 304 341 54 91 195 231 250 208 160 138 134 141 124 123 128 141 157 148 141 142 130 115 110 111 111 106 102 100 97 95 95 91 85 82 81 79 75 73 74 75 81 89 87 77 71 64 55 43 32 24 16 7 360 353 353 354 351 348 347 345 343 344 345 344 345 347 346 345 345 343 340 334
350 345 3 77 176 240 154 160 284 288 282 296 302 311 336 21 118 212 231 270 291 216 171 147 146 152 141 126 123 123 126 128 127 127 122 118 118 115 110 105 100 97 96 96 97 93 88 84 82 79 74 72 74 75 80 87 83 75 69 59 46 33 22 15 7 358 353 352 350 349 345 342 342 344 346 349 351 349 349 353 351 346 344 341 335 324
170 143 324 310 240 318 54 67 4 273 285 320 336 344 15 75 200 215 244 352 335 197 158 146 150 154 142 128 120 119 121 122 122 120 116 114 115 112 110 108 103 98 95 93 92 93 91 86 83 79 74 70 72 71 74 77 73 66 61 51 37 27 20 12 4 358 357 355 352 350 349 345 344 346 348 351 353 350 349 350 348 343 340 336 330 322
239 160 196 269 260 67 62 324 215 220 249 291 50 116 288 224 193 181 122 38 14 29 117 130 132 137 132 125 122 122 122 121 121 120 117 114 113 111 110 111 108 103 99 96 94 94 93 88 85 81 76 70 66 65 65 64 59 53 50 42 30 29 26 13 5 5 4 359 352 350 347 345 345 348 350 352 352 350 348 348 345 343 341 338 334 330
274 228 167 168 229 172 169 220 232 232 260 283 117 152 188 47 92 122 108 77 47 38 40 78 97 112 126 128 127 125 126 128 127 124 121 121 119 115 113 114 113 109 105 102 100 98 94 91 86 80 74 68 62 60 59 56 49 42 37 32 26 27 24 15 9 9 5 358 352 348 346 347 351 355 357 360 1 359 359 358 354 351 351 350 350 348
278 289 117 119 287 303 192 254 319 347 310 317 43 99 103 81 83 101 95 89 85 80 78 82 90 97 111 121 124 124 129 133 130 127 127 124 119 116 115 114 113 113 112 110 109 107 102 96 90 83 75 66 58 57 57 55 46 32 23 18 17 19 19 15 14 10 3 358 353 349 349 351 352 351 349 352 356 357 358 358 355 352 350 350 351 349
332 6 70 87 349 345 329 314 335 331 293 311 43 52 57 64 69 90 103 118 125 100 95 101 103 95 86 94 108 115 122 127 125 124 127 126 122 121 120 118 118 119 120 118 117 117 114 104 95 90 84 74 64 59 55 51 41 29 22 19 19 20 21 19 17 10 1 356 352 349 350 351 350 346 343 344 347 347 346 347 349 349 346 345 346 345
331 18 39 59 115 175 230 277 298 303 306 9 39 38 30 37 53 84 102 116 114 99 97 108 112 112 106 103 108 110 112 122 126 125 126 127 126 125 126 126 126 126 127 129 129 127 123 116 109 105 100 90 77 65 57 52 42 32 31 29 22 16 13 12 10 7 2 357 351 349 349 349 346 344 342 341 341 340 339 338 339 339 337 337 338 338
128 360 254 178 297 299 271 286 310 341 14 12 12 14 9 4 25 97 112 114 110 102 91 96 112 128 135 135 132 127 127 135 136 132 132 130 130 135 137 136 136 139 142 140 137 134 129 126 128 125 115 105 95 82 67 53 36 21 19 21 16 9 6 3 1 1 1 357 350 346 344 342 341 340 338 335 334 334 333 332 331 331 328 325 325 326
112 276 219 140 86 290 260 248 259 152 241 293 323 351 353 348 1 54 100 118 129 133 126 112 115 130 138 145 146 139 140 152 147 136 136 140 143 147 148 145 144 148 148 142 139 139 138 138 137 125 113 105 98 87 65 32 8 352 348 354 0 3 4 3 1 1 360 356 352 347 342 337 335 334 333 332 331 330 329 328 328 329 327 324 322 322
184 198 181 153 178 228 230 218 183 144 193 250 274 308 324 357 25 36 43 49 123 159 150 143 142 141 144 154 153 148 144 150 145 138 138 149 154 153 153 151 148 145 144 143 139 132 124 121 119 112 103 90 74 62 43 19 4 354 349 350 354 356 357 360 1 358 354 350 347 343 339 336 335 335 334 334 333 332 331 329 329 329 328 327 326 325